Regional Weather Roundup
Issued by NWS Sioux Falls, SD

Home | Current Version | Previous Version | Text Only | Print | Product List | Glossary Off
Versions: 1 2 3 4 5 6 7 8 9 10 11 12 13 14 15 16 17 18 19 20 21 22 23 24 25 26 27 28 29 30 31 32 33 34 35 36 37 38 39 40 41 42 43 44 45 46 47 48 49 50

000
ASUS43 KFSD 280902
RWRFSD

WEATHER ROUNDUP FOR SE SOUTH DAKOTA/SW MINNESOTA/NW IOWA
NATIONAL WEATHER SERVICE SIOUX FALLS SD
300 AM CST FRI NOV 28 2014

NOTE: "FAIR" INDICATES FEW OR NO CLOUDS BELOW 12,000 FEET WITH NO
SIGNIFICANT WEATHER AND OR OBSTRUCTIONS TO VISIBILITY.


SDZ038>040-050-052>070-281000-
SOUTHEAST SOUTH DAKOTA

CITY           SKY/WX    TMP DP  RH WIND       PRES   REMARKS
CHAMBERLAIN    NOT AVBL
HURON          CLEAR     18  13  80 SE10      29.85F WCI   6
MADISON        FAIR      14  14 100 S8        29.88F WCI   3
MITCHELL       PTCLDY    22  17  81 SE9       29.87S WCI  12
SIOUX FALLS    CLEAR     18  13  80 SE9       29.91F WCI   7
WINNER         FAIR      44  28  53 SW7       29.79F
YANKTON        CLEAR     19  16  86 SE9       29.91F WCI   9
$$

MNZ071-072-080-081-089-090-097-098-281000-
SOUTHWEST MINNESOTA

CITY           SKY/WX    TMP DP  RH WIND       PRES   REMARKS
FAIRMONT       CLOUDY    12   5  73 SE22      30.01F WCI  -7
JACKSON        CLOUDY    14   9  79 S13G18    29.99F WCI   0
LUVERNE        PTCLDY    18  12  79 SE8       29.95F WCI   7
MARSHALL       PTCLDY    12   5  73 SE12      29.98F WCI  -2
MONTEVIDEO     PTCLDY     9   3  78 S16       30.03F WCI  -9
PIPESTONE      PTCLDY    14  10  85 S12       29.91F WCI   0
REDWOOD FALLS  CLOUDY    11   5  77 SE15      30.05F WCI  -5
TRACY          PTCLDY    13   8  80 SE9       29.99F WCI   1
WINDOM         CLOUDY    12   9  85 SE9G20    29.99F WCI   0
WORTHINGTON    MOCLDY    12  10  92 S13       29.95F WCI  -3
$$

IAZ001>003-012>014-020>022-031-032-NEZ013-014-SDZ071-281000-
NORTHWEST IOWA

CITY           SKY/WX    TMP DP  RH WIND       PRES   REMARKS
DENISON        CLEAR     25  21  86 S13G21    29.97F WCI  13
ESTHERVILLE    CLOUDY    12   6  77 SE17      30.02F WCI  -5
SIOUX CITY     CLEAR     23  18  81 SE9       29.97F WCI  13
SPENCER        CLOUDY    14   9  80 SE18      30.00F WCI  -3
$$

ABBREVIATIONS USED IN REMARKS
   TC - TEMPERATURE IN CELSIUS
  WCI - WIND CHILL INDEX
   HX - HEAT INDEX
  VSB - VISIBILITY



USA.gov is the U.S. government's official web portal to all federal, state and local government web resources and services.